Aérodrome :
LOGIN :

S'inscrire | Disclaimer

   EN    FR    IT 

 










Légende :    VFR   VFR Marginal   IFR   IFR Intensif   IFR Très Intensif
Visi : 
Plafond : 
>= 8 km
>= 3000ft
5 à 8 km
1000 à 3000 ft
1500m à 5 km
500 à 1000 ft
800 à 1500m
200 à 500 ft
< 800m
< 200 ft
Symboles :   Orages  Brouillard  Fortes neiges  Fortes précipitations  Vent > 20 kt
SIGMETs :   Divers  Orages  Givrage  Turbulence  Onde Orograph.  Cendres Volcan.







- Altitude de l'aérodrome : 209 ft
- Code IATA : CLY
- Voir les cartes d'approche


LFKC - Calvi

DERNIER METAR :
  • 222000Z AUTO 19004KT 160V220 CAVOK 14/11 Q1019 NOSIG

METARs EXPIRÉS :
  • 221930Z AUTO 17004KT CAVOK 15/11 Q1019 NOSIG
  • 221900Z AUTO VRB02KT CAVOK 16/11 Q1018 NOSIG
  • 221830Z AUTO 05002KT CAVOK 18/11 Q1018 NOSIG
  • 221800Z AUTO VRB01KT CAVOK 19/11 Q1018 NOSIG
  • 221730Z AUTO 04002KT CAVOK 20/12 Q1017 NOSIG

TAF TAF LFKC
Valide du 22 à 15h jusqu'au 23 à 15h UTC


221400Z 2215/2315 35006KT CAVOK
BECMG 2219/2221 18004KT
BECMG 2308/2311 35006KT TX25/2312Z TN13/2303Z
ATIS : +33 4 95 65 82 49
Pas de NOTAMs connus pour ce terrain.



MET'MAP, la Météo Aéronautique d'un coup d'oeil ! - Copyright ORBIFLY Décembre 2007 - Disclaimer

ORBIFLY MET'MAP TEAM :

Programmation & Développement : Alexandra Zaïnal
Conception & Développement : Baudouin d'Aumeries
Co-Programmation & Développement : Marc-Olivier Méhu
Soutien technique & logistique : Manuel Goepfert

Contact : metmap@orbifly.com




SOURCES & CREDITS :

   NOAA